Trinidad, Colorado, United States (81082)
Lat: 37.17N, Lon: 104.5W
Wx Zone: COZ088
Local Info
Past Weather Observations for Monday, April 14, 2014

NOTE: This archive is for the closest National Weather Service station to Trinidad. Information may differ from the station used for current weather conditions.

Time Weather Temperature Dewpoint Humidity Pressure Winds Precip Visibility
23:54
Clear
27°F / -3°C 19°F / -7°C 74% 30.18 in
(1022 mb)
NW 4.6 mph
(NW 7 kph)
- 10SM
22:54
Clear
27°F / -3°C 19°F / -7°C 74% 30.21 in
(1023 mb)
NW 4.6 mph
(NW 7 kph)
- 10SM
21:54
Clear
28°F / -2°C 21°F / -6°C 74% 30.21 in
(1023 mb)
Calm - 10SM
20:54
Clear
28°F / -2°C 21°F / -6°C 74% 30.21 in
(1023 mb)
SSE 6.9 mph
(SSE 11 kph)
- 10SM
19:54
Clear
30°F / -1°C 23°F / -5°C 75% 30.21 in
(1023 mb)
Calm - 10SM
18:54
Clear
30°F / -1°C 21°F / -6°C 69% 30.18 in
(1022 mb)
SSE 4.6 mph
(SSE 7 kph)
- 10SM
17:54
Clear
34°F / 1°C 19°F / -7°C 56% 30.18 in
(1022 mb)
SE 6.9 mph
(SE 11 kph)
- 10SM
16:54
Clear
36°F / 2°C 21°F / -6°C 56% 30.18 in
(1022 mb)
E 10.4 mph
(E 17 kph)
- 10SM
15:54
Partly Cloudy
34°F / 1°C 21°F / -6°C 60% 30.21 in
(1023 mb)
S 6.9 mph
(S 11 kph)
- 10SM
15:03
Partly Cloudy
34°F / 1°C 21°F / -6°C 60% 30.21 in
(1023 mb)
Variable 3.5 mph
(Variable 6 kph)
- 10SM
14:54
Mostly Cloudy
34°F / 1°C 23°F / -5°C 65% 30.21 in
(1023 mb)
SE 6.9 mph
(SE 11 kph)
- 10SM
14:45
Mostly Cloudy
34°F / 1°C 25°F / -4°C 70% 30.21 in
(1023 mb)
SSE 9.2 mph
(SSE 15 kph)
- 10SM
14:37
Partly Cloudy
34°F / 1°C 23°F / -5°C 65% 30.21 in
(1023 mb)
Calm - 10SM
14:23
Mostly Cloudy
32°F / 0°C 21°F / -6°C 64% 30.24 in
(1024 mb)
S 3.5 mph
(S 6 kph)
- 10SM
13:54
Clear
30°F / -1°C 21°F / -6°C 69% 30.24 in
(1024 mb)
S 4.6 mph
(S 7 kph)
- 10SM
12:54
Partly Cloudy
28°F / -2°C 19°F / -7°C 69% 30.27 in
(1025 mb)
Calm - 10SM
12:40
Partly Cloudy
28°F / -2°C 19°F / -7°C 69% 30.27 in
(1025 mb)
SW 3.5 mph
(SW 6 kph)
- 10SM
11:54
Overcast
27°F / -3°C 18°F / -8°C 69% 30.3 in
(1026 mb)
Variable 3.5 mph
(Variable 6 kph)
- 10SM
10:54
Mostly Cloudy
27°F / -3°C 16°F / -9°C 64% 30.3 in
(1026 mb)
N 9.2 mph
(N 15 kph)
- 10SM
10:50
Partly Cloudy
27°F / -3°C 16°F / -9°C 64% 30.3 in
(1026 mb)
NE 8.1 mph
(NE 13 kph)
- 10SM
10:37
Mostly Cloudy
25°F / -4°C 16°F / -9°C 69% 30.3 in
(1026 mb)
N 9.2 mph
(N 15 kph)
- 10SM
10:16
Mostly Cloudy
25°F / -4°C 14°F / -10°C 63% 30.3 in
(1026 mb)
N 9.2 mph
(N 15 kph)
- 10SM
09:54
Overcast
25°F / -4°C 14°F / -10°C 63% 30.33 in
(1027 mb)
N 10.4 mph
(N 17 kph)
0.03 in
(0.76 mm)
10SM
09:39
Overcast
23°F / -5°C 16°F / -9°C 74% 30.3 in
(1026 mb)
N 6.9 mph
(N 11 kph)
0.03 in
(0.76 mm)
10SM
09:08
Overcast
25°F / -4°C 16°F / -9°C 69% 30.3 in
(1026 mb)
N 8.1 mph
(N 13 kph)
- 10SM
08:54
Overcast
23°F / -5°C 14°F / -10°C 68% 30.3 in
(1026 mb)
N 10.4 mph
(N 17 kph)
0.00 in
(0.00 mm)
10SM
08:37
Overcast
23°F / -5°C 14°F / -10°C 68% 30.3 in
(1026 mb)
N 11.5 mph
(N 19 kph)
0.00 in
(0.00 mm)
10SM
08:29
Overcast
25°F / -4°C 16°F / -9°C 69% 30.3 in
(1026 mb)
N 11.5 mph
(N 19 kph)
0.00 in
(0.00 mm)
10SM
07:54
Mostly Cloudy
21°F / -6°C 16°F / -9°C 80% 30.3 in
(1026 mb)
NNW 9.2 mph
(NNW 15 kph)
0.00 in
(0.00 mm)
10SM
07:39
Overcast
21°F / -6°C 16°F / -9°C 80% 30.27 in
(1025 mb)
NNW 9.2 mph
(NNW 15 kph)
0.00 in
(0.00 mm)
10SM
07:17
Overcast
Light Snow
19°F / -7°C 16°F / -9°C 86% 30.27 in
(1025 mb)
NW 5.8 mph
(NW 9 kph)
0.00 in
(0.00 mm)
7SM
06:54
Overcast
Light Snow
19°F / -7°C 16°F / -9°C 86% 30.27 in
(1025 mb)
NW 5.8 mph
(NW 9 kph)
0.00 in
(0.00 mm)
4SM
06:29
Overcast
Light Snow
19°F / -7°C 16°F / -9°C 86% 30.27 in
(1025 mb)
NNW 5.8 mph
(NNW 9 kph)
0.00 in
(0.00 mm)
3SM
06:02
Overcast
Light Snow
19°F / -7°C 16°F / -9°C 86% 30.24 in
(1024 mb)
NNW 4.6 mph
(NNW 7 kph)
0.00 in
(0.00 mm)
3SM
05:54
Overcast
Light Snow
19°F / -7°C 16°F / -9°C 86% 30.24 in
(1024 mb)
N 4.6 mph
(N 7 kph)
0.00 in
(0.00 mm)
2 1/2SM
05:46
Overcast
Light Snow
19°F / -7°C 16°F / -9°C 86% 30.24 in
(1024 mb)
N 3.5 mph
(N 6 kph)
0.00 in
(0.00 mm)
2 1/2SM
05:09
Overcast
Light Snow
19°F / -7°C 16°F / -9°C 86% 30.24 in
(1024 mb)
NNE 5.8 mph
(NNE 9 kph)
0.00 in
(0.00 mm)
4SM
05:01
Overcast
Light Snow
19°F / -7°C 16°F / -9°C 86% 30.24 in
(1024 mb)
NNE 5.8 mph
(NNE 9 kph)
0.00 in
(0.00 mm)
3SM
04:54
Overcast
Light Snow
19°F / -7°C 16°F / -9°C 86% 30.24 in
(1024 mb)
NE 6.9 mph
(NE 11 kph)
0.00 in
(0.00 mm)
2 1/2SM
04:19
Overcast
Light Snow
19°F / -7°C 16°F / -9°C 86% 30.21 in
(1023 mb)
NE 9.2 mph
(NE 15 kph)
0.00 in
(0.00 mm)
2SM
04:11
Overcast
Light Snow
19°F / -7°C 16°F / -9°C 86% 30.21 in
(1023 mb)
NE 11.5 mph
(NE 19 kph)
0.00 in
(0.00 mm)
1 1/2SM
04:03
Overcast
Light Snow
19°F / -7°C 16°F / -9°C 86% 30.21 in
(1023 mb)
NE 12.7 mph
(NE 20 kph)
0.00 in
(0.00 mm)
2SM
03:54
Overcast
Light Snow
19°F / -7°C 16°F / -9°C 86% 30.21 in
(1023 mb)
N 12.7 mph
(N 20 kph)
0.00 in
(0.00 mm)
2 1/2SM
03:52
Overcast
Light Snow
19°F / -7°C 16°F / -9°C 86% 30.21 in
(1023 mb)
N 11.5 mph
(N 19 kph)
0.00 in
(0.00 mm)
2 1/2SM
02:54
Overcast
Light Snow
19°F / -7°C 16°F / -9°C 86% 30.21 in
(1023 mb)
NW 4.6 mph
(NW 7 kph)
0.00 in
(0.00 mm)
5SM
01:57
Overcast
Light Snow
19°F / -7°C 18°F / -8°C 93% 30.18 in
(1022 mb)
NE 3.5 mph
(NE 6 kph)
0.00 in
(0.00 mm)
3SM
01:54
Overcast
Light Snow
19°F / -7°C 18°F / -8°C 93% 30.18 in
(1022 mb)
NE 4.6 mph
(NE 7 kph)
0.00 in
(0.00 mm)
2SM
01:43
Overcast
Light Snow
19°F / -7°C 18°F / -8°C 93% 30.18 in
(1022 mb)
NE 5.8 mph
(NE 9 kph)
0.00 in
(0.00 mm)
1 1/2SM
01:32
Obscured
Light Snow
19°F / -7°C 18°F / -8°C 93% 30.18 in
(1022 mb)
NE 8.1 mph
(NE 13 kph)
0.00 in
(0.00 mm)
1SM
00:54
Overcast
Light Snow
19°F / -7°C 18°F / -8°C 93% 30.21 in
(1023 mb)
NE 10.4 mph
(NE 17 kph)
0.00 in
(0.00 mm)
1 1/4SM
00:40
Overcast
Light Snow
19°F / -7°C 18°F / -8°C 93% 30.21 in
(1023 mb)
NNE 10.4 mph
(NNE 17 kph)
0.00 in
(0.00 mm)
1 3/4SM
00:31
Overcast
Light Snow
19°F / -7°C 18°F / -8°C 93% 30.21 in
(1023 mb)
N 11.5 mph
(N 19 kph)
0.00 in
(0.00 mm)
2SM
00:20
Overcast
Light Snow
19°F / -7°C 18°F / -8°C 93% 30.21 in
(1023 mb)
N 12.7 mph
(N 20 kph)
0.00 in
(0.00 mm)
1 1/2SM
00:06
Obscured
Light Snow
19°F / -7°C 18°F / -8°C 93% 30.21 in
(1023 mb)
N 13.8 mph
(N 22 kph)
0.00 in
(0.00 mm)
1SM
Time Weather Temperature Dewpoint Humidity Pressure Winds Precip Visibility


Weather for websites

WeatherForYou.com, LLC is not responsible for any damages or problems caused by this service. Current weather conditions are obtained from the closest station including government and personal stations which may have varying degrees of accuracy. Weather forecasts are derived from the NOAA NDFD. Like all things, this site belongs to Jesus Christ... He just trusts me to maintain it. If you have any questions or comments email webmaster@weatherforyou.com

Copyright © 2014, WeatherForYou.com LLC. All rights reserved.